Location: Northcutt
(34.7304°N, 84.4305°W)
Time: 08:15:08
(UTC+00:00)

deb Explorer IX - Pass Details

Date: 04 October 2022
Orbit: 533 x 1057 km, 38.8° (Epoch: 02 December)

Event Time Altitude Azimuth Distance (km) Brightness Sun altitude
Exits shadow 09:38:38 17° 168° (SSE) 1,528 ? -24.5°
Maximum altitude 09:40:09 20° 141° (SE) 1,434 ? -24.2°
Drops below altitude 10° 09:43:42 10° 94° (E) 2,113 ? -23.5°
Sets 09:46:46 0° 78° (ENE) 3,136 ? -22.9°
